Location: Fontevrault
(47.1823°N, 0.0493°E)
Time: 15:01:27
(UTC+00:00)

Cosmos 1850 Rocket - Pass Details

Date: 16 June 2021
Orbit: 755 x 785 km, 74.0° (Epoch: 04 August)

Event Time Altitude Azimuth Distance (km) Brightness Sun altitude
Rises 21:03:28 0° 338° (NNW) 3,277 8.9 -8.9°
Reaches altitude 10° 21:05:52 10° 340° (NNW) 2,341 7.8 -9.2°
Maximum altitude 21:11:12 79° 67° (ENE) 794 4.1 -9.8°
Enters shadow 21:15:58 13° 154° (SSE) 2,116 5.7 -10.3°
